User: anonymous   Login
Location: Oshawa
(43.9000°N, 78.8670°W)
Time: 12:28:59
(UTC-04:00)
Language:

PAYLOAD A - Orbit

View from above orbital plane
View from above orbital plane
View from above satellite
View from above satellite

Ground track
Ground track

The orbit data is extracted from the following two-line orbital elements,

1 27840U 03031A   16146.48294027 -.00000016  00000-0  85180-5 0  9997
2 27840  98.1962 154.9688 0097681 207.2384 152.3662 14.38855173677567
Epoch (UTC): 25 May 2016 11:35:26
Eccentricity: 0.0097681
inclination: 98.1962°
perigee height: 692 km
apogee height: 832 km
right ascension of ascending node: 154.9688°
argument of perigee: 207.2384°
revolutions per day: 14.38855173
mean anomaly at epoch: 152.3662°
orbit number at epoch: 67756

The dashed part of the orbit path shows where the satellite is in the earth's shadow,  

DLR